Regional Weather Roundup
Issued by NWS

Home | Current Version | Previous Version | Graphics & Text | Print | Product List | Glossary On
Versions: 1 2 3 4 5 6 7 8 9 10 11 12 13 14 15 16 17 18 19 20 21 22 23 24 25 26 27 28 29 30 31 32 33 34 35 36 37 38 39 40 41 42 43 44 45 46 47 48 49 50
793
ASUS44 KLIX 261110
RWRLA
LOUISIANA WEATHER ROUNDUP
NATIONAL WEATHER SERVICE NEW ORLEANS LA
500 AM CST MON JAN 26 2015

NOTE: "FAIR" INDICATES FEW OR NO CLOUDS BELOW 12,000 FEET WITH NO
      SIGNIFICANT WEATHER AND/OR OBSTRUCTIONS TO VISIBILITY.
      SKY/WX - SKY CONDITION AND SIGNIFICANT WEATHER.
      TMP - AIR TEMPERATURE.    DP   - DEWPOINT TEMPERATURE.
      RH  - RELATIVE HUMIDITY.  PRES - PRESSURE.
      HX  - HEAT INDEX.         WCI  - WIND CHILL INDEX.

*  THESE STATIONS ARE NOT NWS OR FAA STATIONS AND ARE NOT UNDER
   NWS QUALITY CONTROL.

LAZ040-048-061>063-065-066-069-261200-
SOUTHEAST LOUISIANA

CITY           SKY/WX    TMP DP  RH WIND       PRES   REMARKS
N.O. AUDUBON     N/A     50  37  60 MISG        N/A
N.O. INTL ARPT CLEAR     49  35  58 NW12      30.05R
N.O. LAKEFRONT CLEAR     53  38  56 NW17      30.06R
N.O. DOWNTOWN* FAIR      52  34  50 NW6       30.06R
SLIDELL        CLEAR     45  34  65 CALM      30.04R
BATON ROUGE    CLEAR     49  31  49 NW8       30.06R
BOOTHVILLE     CLEAR     50  39  66 NW9       30.05R
BELLE CHASSE   CLEAR     51  33  50 NW5       30.05R
BOGALUSA*        N/A     44  34  68 N7        30.05S
GALLIANO*      SUNNY     45  37  73 MISG      30.07R
NEW ROADS*     FAIR      47  33  57 NW14      30.08S
GONZALES*      FAIR      48  33  55 NW5       30.05S
HAMMOND*       CLEAR     48  32  53 NW8       30.07R
HOUMA*         CLEAR     48  34  59 NW6       30.06S HAZE
PORT FOURCHON* SUNNY     52  41  66 W8        30.10R

$$

LAZ041-044-053-054-261200-
SOUTHWEST LOUISIANA

CITY           SKY/WX    TMP DP  RH WIND       PRES   REMARKS
LAKE CHARLES   CLEAR     49  31  49 N15       30.12R
LAFAYETTE      CLEAR     48  32  53 N12       30.09R
PATTERSON      CLEAR     50  32  50 N8        30.08S
SALT POINT       N/A     49  35  58 NW7       30.07S
NEW IBERIA     CLEAR     49  33  54 N13       30.09R
CHENAULT AIRPK NOT AVBL

$$

LAZ027-028-261200-
CENTRAL LOUISIANA

CITY           SKY/WX    TMP DP  RH WIND       PRES   REMARKS
FORT POLK      CLEAR     44  32  61 N7        30.11F
ALEXANDRIA INT CLEAR     43  33  68 NW9       30.10S
ALEXANDRIA     CLEAR     44  32  62 NW5       30.11R

$$

LAZ001-002-261200-
NORTHWEST LOUISIANA

CITY           SKY/WX    TMP DP  RH WIND       PRES   REMARKS
SHREVEPORT     CLEAR     42  32  67 NW8       30.15R
BARKSDALE AFB  CLEAR     40  32  71 NW9       30.15R WCI  34
DTN SHREVEPORT CLEAR     43  31  62 NW9       30.15R

$$

LAZ014-016-261200-
NORTHEAST LOUISIANA

CITY           SKY/WX    TMP DP  RH WIND       PRES   REMARKS
MONROE         CLEAR     42  34  73 NW9       30.12R
TALLULAH       CLOUDY    43  34  70 NW5       30.09R

$$




USA.gov is the U.S. government's official web portal to all federal, state and local government web resources and services.